Regional Weather Roundup
Issued by NWS Jackson, KY

Home | Current Version | Previous Version | Graphics & Text | Print | Product List | Glossary On
Versions: 1 2 3 4 5 6 7 8 9 10 11 12 13 14 15 16 17 18 19 20 21 22 23 24 25 26 27 28 29 30 31 32 33 34 35 36 37 38 39 40 41 42 43 44 45 46 47 48 49 50
424
ASUS43 KJKL 170810
RWRJKL

EAST KENTUCKY HOURLY WEATHER ROUNDUP
NATIONAL WEATHER SERVICE JACKSON KY
300 AM EST TUE JAN 17 2017

NOTE: "FAIR" INDICATES FEW OR NO CLOUDS BELOW 12,000 FEET WITH
NO SIGNIFICANT WEATHER AND/OR OBSTRUCTIONS TO VISIBILITY.

* THESE REPORTS ARE NOT UNDER NWS QUALITY CONTROL AND MAY NOT
  REPORT WEATHER SUCH AS PRECIPITATION AND FOG.

KYZ079-080-083-085-087-088-110-112-115-119-120-170900
...EASTERN KENTUCKY...

CITY           SKY/WX    TMP DP  RH WIND       PRES   REMARKS
JACKSON        LGT RAIN  58  52  80 S6        30.08F
LONDON         RAIN      57  52  83 S5        30.09R
SOMERSET*      RAIN      55  55 100 S5        30.08S
MONTICELLO*    LGT RAIN  58  55  90 VRB6      30.08R
WILLIAMSBURG*  CLOUDY    59  55  88 SE6       30.08S
MIDDLESBORO*   CLOUDY    59  53  80 S8        30.12F
HARLAN APT*    CLOUDY    59  48  67 CALM      30.12F
PIKE CO APT*   CLOUDY    59  49  71 S8        30.09F
MOREHEAD APT*  RAIN      57  54  88 S7        30.08S
ASHLAND*       CLOUDY    48  48 100 SE3       30.06R
$$

KYZ035-036-041-042-044-050-067-078-099-170900
...CENTRAL KENTUCKY...

CITY           SKY/WX    TMP DP  RH WIND       PRES   REMARKS
MT STERLING*   RAIN      55  55 100 SW9       30.07S
FLEMING/MASON* LGT RAIN  55  54  95 S12       30.04F
DANVILLE*      LGT RAIN  55  54  94 S7        30.05F
LEXINGTON      RAIN      57  55  93 S10       30.03S FOG
FRANKFORT      RAIN      58  54  86 S9        30.01R FOG
LOUISVILLE     LGT RAIN  59  56  89 S12       29.97F FOG
LEBANON*       LGT RAIN  57  57 100 S13G18    30.01F
GLASGOW*       RAIN      58  58 100 SE8       29.99F
BOWLING GREEN  LGT RAIN  60  56  86 SW12G18   30.00R FOG
$$

KYZ091>093-OHZ055-061-077-WVZ005-015-034-035-042-170900
...SOUTHERN OHIO/WEST VIRGINIA...

CITY           SKY/WX    TMP DP  RH WIND       PRES   REMARKS
COVINGTON      LGT RAIN  57  55  93 S12       29.98R
COLUMBUS       RAIN      50  50 100 SE8       30.00F FOG
DAYTON         CLOUDY    51  50  96 S13       29.94F
WILMINGTON     CLOUDY    54  52  93 S15       29.97F
HUNTINGTON     LGT RAIN  50  49  96 CALM      30.07S FOG
CHARLESTON     CLOUDY    49  48  97 CALM      30.08F FOG
PINEVILLE*     CLOUDY    50  46  87 MISG      30.19S FOG
BECKLEY        CLOUDY    50  45  83 SE7       30.15F
BLUEFIELD      CLOUDY    52  44  74 SW5       30.18F
LOGAN CO APT*  CLOUDY    59  48  67 S6G12     30.10F
$$

VAZ002-007-008-TNZ017-027-036-066-071-170900
...SOUTHWEST VIRGINIA/EAST TENNESSEE...

CITY           SKY/WX    TMP DP  RH WIND       PRES   REMARKS
WISE*          MOCLDY    55  46  71 S10       30.16S
JONESVILLE*      N/A     50  50 100 CALM      30.16F
ABINGDON*      CLOUDY    51  49  93 E8        30.17F
BRISTOL        PTCLDY    52  48  86 CALM      30.15F
MORRISTOWN*    PTSUNNY   52  52 100 CALM      30.12F
SEVIERVILLE*   SUNNY     48  48 100 NE3       30.12F
LAFOLLETTE*    CLOUDY    63  54  72 S16G23    30.14S
OAK RIDGE      CLOUDY    56  53  90 SW3       30.15
CROSSVILLE     CLOUDY    57  52  83 S10G20    30.12S
NASHVILLE      LGT RAIN  65  57  75 SW18G26   30.03R
$$

...KEY TO REMARKS...
VSB - VISIBILITY IN MILES
WCI - WIND CHILL INDEX
HX  - HEAT INDEX

$$




USA.gov is the U.S. government's official web portal to all federal, state and local government web resources and services.